TimeEDT,TemperatureF,Dew PointF,Humidity,Sea Level PressureIn,VisibilityMPH,Wind Direction,Wind SpeedMPH,Gust SpeedMPH,PrecipitationIn,Events,Conditions,WindDirDegrees,DateUTC
12:53 AM,55.9,54.0,93,30.14,10.0,South,9.2,-,N/A,,Overcast,180,2013-05-20 04:53:00
1:53 AM,55.9,54.0,93,30.09,10.0,South,9.2,-,0.00,Rain,Light Rain,170,2013-05-20 05:53:00
2:53 AM,55.9,54.0,93,30.08,10.0,South,8.1,-,0.00,,Overcast,190,2013-05-20 06:53:00
3:53 AM,55.9,54.0,93,30.06,10.0,South,5.8,-,N/A,,Overcast,180,2013-05-20 07:53:00
4:53 AM,55.9,54.0,93,30.02,10.0,South,6.9,-,N/A,,Overcast,180,2013-05-20 08:53:00
5:53 AM,57.0,54.0,89,30.02,10.0,South,6.9,-,N/A,,Overcast,170,2013-05-20 09:53:00
6:35 AM,57.2,53.6,88,30.03,10.0,South,6.9,-,N/A,,Overcast,190,2013-05-20 10:35:00
7:46 AM,59.0,55.4,88,30.03,10.0,Calm,Calm,-,N/A,,Overcast,0,2013-05-20 11:46:00
8:00 AM,60.8,55.4,82,30.03,10.0,NW,3.5,-,N/A,,Overcast,310,2013-05-20 12:00:00
8:29 AM,62.6,57.2,82,30.03,10.0,South,5.8,-,N/A,,Scattered Clouds,190,2013-05-20 12:29:00
8:48 AM,64.4,57.2,77,30.03,10.0,Variable,6.9,-,N/A,,Scattered Clouds,0,2013-05-20 12:48:00
8:53 AM,63.0,57.0,81,30.02,10.0,SW,3.5,-,N/A,,Scattered Clouds,220,2013-05-20 12:53:00
9:29 AM,66.2,57.2,73,30.03,10.0,Variable,4.6,-,N/A,,Mostly Cloudy,0,2013-05-20 13:29:00
10:06 AM,66.2,57.2,73,30.03,10.0,WSW,4.6,-,N/A,,Overcast,250,2013-05-20 14:06:00
10:26 AM,64.4,57.2,77,30.03,4.0,Calm,Calm,-,0.02,Rain,Light Rain,0,2013-05-20 14:26:00
10:36 AM,64.4,59.0,83,30.03,10.0,Calm,Calm,-,0.02,Rain,Light Rain,0,2013-05-20 14:36:00
10:53 AM,66.0,61.0,84,30.01,10.0,Calm,Calm,-,0.02,,Mostly Cloudy,0,2013-05-20 14:53:00
11:38 AM,68.0,59.0,73,30.00,10.0,Variable,3.5,-,N/A,,Overcast,0,2013-05-20 15:38:00
11:53 AM,69.1,59.0,70,29.98,10.0,WSW,5.8,-,N/A,,Overcast,250,2013-05-20 15:53:00
12:53 PM,71.1,59.0,66,29.97,10.0,Calm,Calm,-,N/A,,Overcast,0,2013-05-20 16:53:00
1:53 PM,71.1,60.1,68,29.97,10.0,West,3.5,-,N/A,,Overcast,270,2013-05-20 17:53:00
2:53 PM,73.0,60.1,64,29.96,10.0,NW,3.5,-,N/A,,Overcast,320,2013-05-20 18:53:00
3:53 PM,72.0,62.1,71,29.94,10.0,Calm,Calm,-,N/A,,Overcast,0,2013-05-20 19:53:00
4:53 PM,71.1,61.0,70,29.96,10.0,NNE,4.6,-,N/A,,Overcast,20,2013-05-20 20:53:00
5:53 PM,71.1,62.1,73,29.96,10.0,NE,3.5,-,N/A,,Mostly Cloudy,50,2013-05-20 21:53:00
6:53 PM,69.1,62.1,78,29.96,10.0,Calm,Calm,-,N/A,,Overcast,0,2013-05-20 22:53:00
7:05 PM,69.8,62.6,78,29.98,10.0,NE,3.5,-,N/A,,Overcast,40,2013-05-20 23:05:00
7:53 PM,66.9,62.1,84,29.96,10.0,Calm,Calm,-,N/A,,Clear,0,2013-05-20 23:53:00
8:53 PM,62.1,60.1,93,29.97,7.0,Calm,Calm,-,N/A,,Partly Cloudy,0,2013-05-21 00:53:00
9:31 PM,60.8,57.2,88,29.99,2.0,SSE,3.5,-,N/A,,Scattered Clouds,160,2013-05-21 01:31:00
9:40 PM,60.8,59.0,94,29.99,5.0,Calm,Calm,-,N/A,,Partly Cloudy,0,2013-05-21 01:40:00
10:01 PM,60.8,59.0,94,29.98,1.8,Calm,Calm,-,N/A,,Clear,0,2013-05-21 02:01:00
10:11 PM,60.8,59.0,94,29.98,3.0,ENE,3.5,-,N/A,,Clear,70,2013-05-21 02:11:00
10:51 PM,57.2,55.4,94,29.99,2.5,Calm,Calm,-,N/A,,Scattered Clouds,0,2013-05-21 02:51:00
10:53 PM,57.9,55.9,93,29.98,2.5,Calm,Calm,-,N/A,,Scattered Clouds,0,2013-05-21 02:53:00
11:03 PM,57.2,55.4,94,30.00,2.5,South,3.5,-,N/A,,Mostly Cloudy,170,2013-05-21 03:03:00
11:15 PM,57.2,57.2,100,29.99,4.0,South,3.5,-,N/A,,Overcast,170,2013-05-21 03:15:00
11:26 PM,59.0,57.2,94,29.98,1.8,ESE,3.5,-,N/A,,Overcast,110,2013-05-21 03:26:00
11:37 PM,60.8,59.0,94,29.99,3.0,Calm,Calm,-,N/A,,Mostly Cloudy,0,2013-05-21 03:37:00
11:44 PM,60.8,57.2,88,29.99,2.0,Calm,Calm,-,N/A,,Mostly Cloudy,0,2013-05-21 03:44:00
11:53 PM,57.9,57.0,97,29.98,1.0,Calm,Calm,-,N/A,,Overcast,0,2013-05-21 03:53:00